Weather in Kumak

Russia / Orenburg Oblast     51°19′19″N   58°50′49″E
temp.,
°C
wind,
m/s
gust,
m/s
humid.,
%
clouds,
%
prec.,
mm/h
press.,
hPa
HPBL,
m
1 march, mon
mon123:00−10w7129283 1.0 1009311
02:00−13w6992100 0.1 1011259
05:00−14w5994100 0.3 1013248
08:00−15w489599 0.2 1015215
11:00−13w469296 0.3 1016249
14:00−11w459190 0.0 1017340
17:00−11w469195 0.1 1018413
20:00−13wsw489489 0.1 1019290
2 march, tue
tue223:00−14w489394 0.3 1020273
02:00−16wsw499586 0.0 1019225
05:00−16w5119292 0.1 1020361
08:00−20wsw499670 0.0 1020217
11:00−18w6109371 0.0 1021354
14:00−15wsw6109199 0.0 1019468
17:00−13wsw5108999 0.0 1017499
20:00−12sw51388100 0.0 1016539
3 march, wed
wed323:00−10sw41392100 0.0 1014619
02:00−7ssw41491100 0.0 1011674
05:00−5sw61492100 0.1 1009744
08:00−3sw61494100 0.4 1007817
11:00−1sw71390100 0.7 1007976
14:00−1sw81291100 0.3 10061012
17:000sw61191100 0.6 1005941
20:00−2sw4997100 0.3 1004391
4 march, thu
thu423:00−2sw41097100 0.6 1004462
02:00−4sw499496 0.1 1003240
05:00−4wnw479498 0.1 1004185
08:00−9w4692100 0.0 1006109
11:00−7w6118864 0.0 1008455
14:00−5w7118485 0.0 1010784
17:00−7w7128669 0.0 1012624
20:00−10wsw6129123 0.0 1014345
5 march, fri
fri523:00−10wsw5139257 0.0 1016508
02:00−7sw61687100 0.0 1014679
05:00−5sw81685100 0.1 1013867
08:00−3sw101884100 0.0 1012938
11:00−1sw101881100 0.0 10121090
14:00−1wsw111881100 0.0 10121218
17:000wsw91784100 0.0 10141169
20:00−2wsw71592100 0.2 1015887